Location: Ariel
(45.9570°N, 122.5700°W)
Time: 15:23:36
(UTC-07:00)

Altair - Pass Details

Date: 25 July 2019
Orbit: 1501 x 1683 km, 47.2° (Epoch: 18 August)

Event Time Altitude Azimuth Distance (km) Brightness Sun altitude
Rises 09:37:59 0° 184° (S) 4,685 10.1 38.3°
Reaches altitude 10° 09:42:13 10° 168° (SSE) 3,681 9.9 39.0°
Maximum altitude 09:48:03 19° 128° (SE) 3,023 10.3 40.0°
Drops below altitude 10° 09:53:50 10° 88° (E) 3,653 10.6 41.0°
Sets 09:57:59 0° 71° (ENE) 4,638 10.6 41.7°
